Regional Weather Roundup
Issued by NWS

Home | Current Version | Previous Version | Text Only | Print | Product List | Glossary Off
Versions: 1 2 3 4 5 6 7 8 9 10 11 12 13 14 15 16 17 18 19 20 21 22 23 24 25 26 27 28 29 30 31 32 33 34 35 36 37 38 39 40 41 42 43 44 45 46 47 48 49 50

000
ASUS44 KMEG 290400
RWRTN
TENNESSEE HOURLY STATE WEATHER ROUNDUP
NATIONAL WEATHER SERVICE MEMPHIS TN
1100 PM CDT THU MAY 28 2015

TNZ002-004-019-021-049-052-054-088>092-290500-
WEST TENNESSEE

CITY           SKY/WX    TMP DP  RH WIND       PRES   REMARKS
MEMPHIS INTL   PTCLDY    75  65  70 SE6       30.08R
NWS MEMPHIS      N/A     73 N/A N/A MISG        N/A
JACKSON        CLEAR     71  65  81 VRB3      30.09F
DYERSBURG      CLEAR     72  55  56 SE5       30.09R
PARIS          CLEAR     68  64  88 SE5       30.11S
LEXINGTON      PTCLDY    72  68  88 SE3       30.11F
$$

TNZ008-025-027-028-033-062-065-066-290500-
NORTH MIDDLE TENNESSEE

CITY           SKY/WX    TMP DP  RH WIND       PRES   REMARKS
NASHVILLE      CLOUDY    70  65  84 S9        30.18R
CLARKSVILLE    MOCLDY    71  66  84 SE5       30.12F
COOKEVILLE     CLEAR     68  66  94 CALM      30.19F
CROSSVILLE     CLOUDY    68  62  81 S5        30.24S
$$

TNZ061-075-076-078-094-096-097-290500-
SOUTH MIDDLE TENNESSEE

CITY           SKY/WX    TMP DP  RH WIND       PRES   REMARKS
FAYETTEVILLE   CLEAR    N/A N/A N/A MISG      30.18F
TULLAHOMA      CLEAR     66  64  94 CALM      30.20F
WINCHESTER     CLOUDY    70  66  88 SE8       30.19F
SHELBYVILLE    CLEAR     70  68  94 CALM      30.19F
$$

TNZ017-018-042-046-047-290500-
NORTHEAST TENNESSEE

CITY           SKY/WX    TMP DP  RH WIND       PRES   REMARKS
TRI CITIES     CLOUDY    67  65  93 CALM      30.24F
ELIZABETHTON   CLEAR     63  61  94 E3        30.25F
$$

TNZ012-013-036-069-073-074-290500-
CENTRAL EAST TENNESSEE

CITY           SKY/WX    TMP DP  RH WIND       PRES   REMARKS
KNOXVILLE      CLOUDY    72  66  81 W7        30.20F
OAK RIDGE      CLOUDY    72  64  76 CALM      30.22F
GATLINBURG       N/A     70  66  88 CALM      30.21S
$$

TNZ083-085-099-290500-
SOUTHEAST TENNESSEE

CITY           SKY/WX    TMP DP  RH WIND       PRES   REMARKS
CHATTANOOGA    CLOUDY    68  67  96 CALM      30.20F
$$

SKY/WX REPORTED AS FAIR MEANS FEW OR NO CLOUDS BELOW
12 THOUSAND FEET.



USA.gov is the U.S. government's official web portal to all federal, state and local government web resources and services.